This demonstration page uses our WeatherBlox Daily Observations layout. Learn more.

Left ArrowRight Arrow

Hourly Observations for June 30, 2015

Temp ( °F °C ) Dew Point ( °F °C ) Humidity (%) Winds ( mph kmh ) Pressure ( in mb ) Visibility ( mi km ) Precip ( " mm )
12:54 am 00:54 Clear with Mist and Fog 68 20 64 17.8 87 87 N N/A 29.92 1013 6 9.65604 N/A
1:54 am 01:54 Clear with Mist and Fog 67 19.4 63 17.2 87 87 N N/A 29.92 1013 6 9.65604 N/A
2:54 am 02:54 Clear with Mist and Fog 64 17.8 61 16.1 90 90 N N/A 29.91 1013 6 9.65604 N/A
3:54 am 03:54 Hazy 67 19.4 62 16.7 84 84 N N/A 29.89 1012 6 9.65604 N/A
4:54 am 04:54 Clear with Mist and Fog 65 18.3 62 16.7 90 90 N N/A 29.9 1013 5 8.0467 N/A
5:54 am 05:54 Clear with Mist and Fog 65 18.3 61 16.1 87 87 N N/A 29.91 1013 5 8.0467 N/A
6:54 am 06:54 Hazy 68 20 62 16.7 81 81 N N/A 29.92 1013 4 6.43736 N/A
7:54 am 07:54 Hazy 71 21.7 63 17.2 76 76 N N/A 29.92 1013 4 6.43736 N/A
8:54 am 08:54 Mostly Cloudy with Haze 75 23.9 65 18.3 71 71 NNE 5 7 29.94 1014 5 8.0467 N/A
9:54 am 09:54 Hazy 79 26.1 65 18.3 62 62 N N/A 29.93 1014 5 8.0467 N/A
10:54 am 10:54 Hazy 79 26.1 65 18.3 62 62 N N/A 29.92 1013 5 8.0467 N/A
11:54 am 11:54 Hazy 82 27.8 65 18.3 56 56 S 5 7 29.9 1013 6 9.65604 N/A
12:54 pm 12:54 Hazy 85 29.4 64 17.8 50 50 N N/A 29.91 1013 6 9.65604 N/A
1:54 pm 13:54 Hazy 88 31.1 66 18.9 48 48 ENE 16 26 29.89 1012 6 9.65604 N/A
2:54 pm 14:54 Hazy 83 28.3 66 18.9 57 57 E 15 24 29.88 1012 5 8.0467 N/A
3:54 pm 15:54 Sunny 85 29.4 61 16.1 45 45 E 10 17 29.86 1011 8 12.87472 N/A
4:54 pm 16:54 Hazy 83 28.3 64 17.8 53 53 E 9 15 29.85 1011 5 8.0467 N/A
5:54 pm 17:54 Hazy 81 27.2 62 16.7 53 53 E 9 15 29.85 1011 6 9.65604 N/A
6:54 pm 18:54 Hazy 79 26.1 63 17.2 58 58 E 9 15 29.84 1011 5 8.0467 N/A
7:54 pm 19:54 Mostly Cloudy with Haze 78 25.6 65 18.3 64 64 E 10 17 29.84 1011 5 8.0467 N/A
8:54 pm 20:54 Partly Cloudy with Light Rain 76 24.4 65 18.3 69 69 ENE 7 11 29.85 1011 7 11.26538 N/A
9:54 pm 21:54 Mostly Clear 73 22.8 66 18.9 79 79 E 9 15 29.85 1011 7 11.26538 N/A
10:54 pm 22:54 Clear 74 23.3 64 17.8 71 71 ENE 9 15 29.85 1011 8 12.87472 N/A

Powered by AerisWeather